Tiempo cada hora Barreiras

Hoy, 8 Marzo, Lunes

Tiempo Temperatura Precipitaciones Viento Presión Humedad
00:00 +22°C° 0 mm 0 mps 719 mmHg 86%
01:00 +22°C° 0 mm 0 mps 719 mmHg 87%
02:00 +21°C° 0 mm 0 mps 718 mmHg 89%
03:00 +23°C° 0 mm 1 mps 718 mmHg 88%
04:00 +23°C° 0 mm 1 mps 718 mmHg 89%
05:00 +23°C° 0 mm 1 mps 718 mmHg 90%
06:00 +20°C° 0 mm 0 mps 718 mmHg 91%
07:00 +25°C° 0 mm 1 mps 719 mmHg 84%
08:00 +27°C° 0 mm 1 mps 720 mmHg 77%
09:00 +30°C° 0 mm 1 mps 721 mmHg 68%
10:00 +31°C° 0.7 mm 1 mps 720 mmHg 65%
11:00 +30°C° 0.7 mm 0 mps 720 mmHg 61%
12:00 +31°C° 0.7 mm 0 mps 719 mmHg 58%
13:00 +33°C° 0.1 mm 1 mps 719 mmHg 55%
14:00 +33°C° 0.1 mm 1 mps 718 mmHg 53%
15:00 +34°C° 0.1 mm 1 mps 718 mmHg 50%
16:00 +32°C° 0.3 mm 1 mps 717 mmHg 60%
17:00 +30°C° 0.3 mm 1 mps 717 mmHg 70%
18:00 +28°C° 0.3 mm 1 mps 716 mmHg 80%
19:00 +27°C° 0.2 mm 1 mps 717 mmHg 81%
20:00 +24°C° 0.2 mm 0 mps 718 mmHg 82%
21:00 +23°C° 0.2 mm 0 mps 718 mmHg 83%
22:00 +23°C° 0.1 mm 0 mps 718 mmHg 85%
23:00 +24°C° 0.1 mm 1 mps 718 mmHg 86%

Mañana, 9 Marzo, Martes

Tiempo Temperatura Precipitaciones Viento Presión Humedad
00:00 +24°C° 0.1 mm 1 mps 718 mmHg 88%
01:00 +24°C° 0.7 mm 1 mps 718 mmHg 90%
02:00 +24°C° 0.7 mm 1 mps 718 mmHg 92%
03:00 +23°C° 0.7 mm 1 mps 717 mmHg 94%
04:00 +21°C° 0.5 mm 0 mps 717 mmHg 95%
05:00 +21°C° 0.5 mm 0 mps 718 mmHg 96%
06:00 +20°C° 0.5 mm 0 mps 718 mmHg 96%
07:00 +23°C° 0.1 mm 0 mps 718 mmHg 90%
08:00 +25°C° 0.1 mm 0 mps 719 mmHg 84%
09:00 +29°C° 0.1 mm 1 mps 719 mmHg 77%
10:00 +31°C° 0.7 mm 1 mps 719 mmHg 69%
11:00 +32°C° 0.7 mm 1 mps 719 mmHg 61%
12:00 +34°C° 0.7 mm 1 mps 719 mmHg 53%
13:00 +34°C° 0.1 mm 1 mps 718 mmHg 52%
14:00 +33°C° 0.1 mm 1 mps 717 mmHg 52%
15:00 +33°C° 0.1 mm 1 mps 716 mmHg 51%
16:00 +31°C° 0.1 mm 1 mps 716 mmHg 60%
17:00 +30°C° 0.1 mm 1 mps 716 mmHg 68%
18:00 +28°C° 0.1 mm 1 mps 716 mmHg 77%
19:00 +27°C° 0.4 mm 1 mps 716 mmHg 80%
20:00 +24°C° 0.4 mm 0 mps 717 mmHg 83%
21:00 +23°C° 0.4 mm 0 mps 717 mmHg 86%
22:00 +22°C° 0.1 mm 0 mps 717 mmHg 87%
23:00 +24°C° 0.1 mm 1 mps 717 mmHg 88%

Pasado mañana, 10 Marzo, Miércoles

Tiempo Temperatura Precipitaciones Viento Presión Humedad
00:00 +24°C° 0.1 mm 1 mps 718 mmHg 90%
01:00 +24°C° 0.6 mm 1 mps 717 mmHg 91%
02:00 +22°C° 0.6 mm 0 mps 717 mmHg 92%
03:00 +21°C° 0.6 mm 0 mps 717 mmHg 94%
04:00 +21°C° 0.5 mm 0 mps 717 mmHg 94%
05:00 +21°C° 0.5 mm 0 mps 717 mmHg 95%
06:00 +21°C° 0.5 mm 0 mps 717 mmHg 95%
07:00 +23°C° 0.5 mm 0 mps 718 mmHg 90%
08:00 +25°C° 0.5 mm 0 mps 719 mmHg 85%
09:00 +27°C° 0.5 mm 0 mps 719 mmHg 79%
10:00 +28°C° 0.7 mm 0 mps 719 mmHg 74%
11:00 +29°C° 0.7 mm 0 mps 719 mmHg 69%
12:00 +30°C° 0.7 mm 0 mps 719 mmHg 63%
13:00 +30°C° 1.3 mm 0 mps 718 mmHg 66%
14:00 +29°C° 1.3 mm 0 mps 718 mmHg 68%
15:00 +29°C° 1.3 mm 0 mps 717 mmHg 70%
16:00 +27°C° 1.3 mm 0 mps 717 mmHg 75%
17:00 +26°C° 1.3 mm 0 mps 717 mmHg 79%
18:00 +25°C° 1.3 mm 0 mps 717 mmHg 83%
19:00 +24°C° 0.4 mm 0 mps 717 mmHg 85%
20:00 +25°C° 0.4 mm 1 mps 718 mmHg 87%
21:00 +25°C° 0.4 mm 1 mps 718 mmHg 88%
22:00 +25°C° 0.7 mm 1 mps 718 mmHg 90%
23:00 +24°C° 0.7 mm 1 mps 719 mmHg 91%

11 Marzo, Jueves

Tiempo Temperatura Precipitaciones Viento Presión Humedad
00:00 +24°C° 0.7 mm 1 mps 719 mmHg 93%
01:00 +24°C° 0.6 mm 1 mps 719 mmHg 94%
02:00 +23°C° 0.6 mm 1 mps 719 mmHg 95%
03:00 +23°C° 0.6 mm 1 mps 718 mmHg 96%
04:00 +23°C° 0.5 mm 1 mps 719 mmHg 96%
05:00 +23°C° 0.5 mm 1 mps 719 mmHg 97%
06:00 +23°C° 0.5 mm 1 mps 719 mmHg 97%
07:00 +24°C° 0.2 mm 1 mps 720 mmHg 95%
08:00 +24°C° 0.2 mm 1 mps 720 mmHg 94%
09:00 +25°C° 0.2 mm 1 mps 720 mmHg 92%
10:00 +27°C° 0.3 mm 1 mps 720 mmHg 83%
11:00 +29°C° 0.3 mm 1 mps 720 mmHg 73%
12:00 +31°C° 0.3 mm 1 mps 720 mmHg 64%
13:00 +32°C° 0.3 mm 1 mps 719 mmHg 61%
14:00 +32°C° 0.3 mm 1 mps 718 mmHg 59%
15:00 +32°C° 0.3 mm 1 mps 718 mmHg 56%
16:00 +31°C° 0.1 mm 1 mps 717 mmHg 63%
17:00 +29°C° 0.1 mm 1 mps 717 mmHg 69%
18:00 +28°C° 0.1 mm 1 mps 717 mmHg 75%
19:00 +27°C° 0.2 mm 1 mps 717 mmHg 79%
20:00 +26°C° 0.2 mm 1 mps 718 mmHg 82%
21:00 +25°C° 0.2 mm 1 mps 718 mmHg 85%
22:00 +24°C° 0.2 mm 1 mps 719 mmHg 87%
23:00 +24°C° 0.2 mm 1 mps 719 mmHg 89%

12 Marzo, Viernes

Tiempo Temperatura Precipitaciones Viento Presión Humedad
00:00 +24°C° 0.2 mm 1 mps 719 mmHg 91%
01:00 +23°C° 0.3 mm 1 mps 718 mmHg 92%
02:00 +23°C° 0.3 mm 1 mps 718 mmHg 93%
03:00 +23°C° 0.3 mm 1 mps 718 mmHg 94%
04:00 +23°C° 0.2 mm 1 mps 718 mmHg 95%
05:00 +23°C° 0.2 mm 1 mps 718 mmHg 95%
06:00 +22°C° 0.2 mm 1 mps 718 mmHg 95%
07:00 +24°C° 0.4 mm 1 mps 719 mmHg 91%
08:00 +26°C° 0.4 mm 1 mps 719 mmHg 87%
09:00 +27°C° 0.4 mm 1 mps 720 mmHg 83%
10:00 +28°C° 1.3 mm 1 mps 719 mmHg 79%
11:00 +30°C° 1.3 mm 1 mps 719 mmHg 76%
12:00 +31°C° 1.3 mm 1 mps 719 mmHg 72%
13:00 +31°C° 2.1 mm 1 mps 718 mmHg 73%
14:00 +31°C° 2.1 mm 1 mps 717 mmHg 73%
15:00 +31°C° 2.1 mm 1 mps 717 mmHg 74%
16:00 +29°C° 1.7 mm 1 mps 717 mmHg 78%
17:00 +28°C° 1.7 mm 1 mps 717 mmHg 82%
18:00 +27°C° 1.7 mm 1 mps 716 mmHg 86%
19:00 +26°C° 0.5 mm 1 mps 717 mmHg 87%
20:00 +26°C° 0.5 mm 1 mps 717 mmHg 88%
21:00 +23°C° 0.5 mm 0 mps 718 mmHg 89%
22:00 +25°C° 0.1 mm 1 mps 718 mmHg 89%
23:00 +25°C° 0.1 mm 1 mps 718 mmHg 90%

13 Marzo, Sábado

Tiempo Temperatura Precipitaciones Viento Presión Humedad
00:00 +24°C° 0.1 mm 1 mps 718 mmHg 90%
01:00 +24°C° 0.8 mm 1 mps 718 mmHg 91%
02:00 +24°C° 0.8 mm 1 mps 718 mmHg 92%
03:00 +22°C° 0.8 mm 0 mps 717 mmHg 94%
04:00 +24°C° 0.4 mm 1 mps 718 mmHg 94%
05:00 +24°C° 0.4 mm 1 mps 718 mmHg 94%
06:00 +23°C° 0.4 mm 1 mps 718 mmHg 94%
07:00 +24°C° 0.1 mm 1 mps 718 mmHg 93%
08:00 +25°C° 0.1 mm 1 mps 719 mmHg 92%
09:00 +25°C° 0.1 mm 1 mps 719 mmHg 91%
10:00 +26°C° 0.3 mm 1 mps 719 mmHg 85%
11:00 +28°C° 0.3 mm 1 mps 719 mmHg 79%
12:00 +29°C° 0.3 mm 2 mps 719 mmHg 73%
13:00 +30°C° 0.2 mm 2 mps 719 mmHg 68%
14:00 +31°C° 0.2 mm 1 mps 718 mmHg 62%
15:00 +32°C° 0.2 mm 1 mps 717 mmHg 56%
16:00 +30°C° 0.1 mm 1 mps 717 mmHg 64%
17:00 +28°C° 0.1 mm 1 mps 717 mmHg 71%
18:00 +27°C° 0.1 mm 1 mps 717 mmHg 79%
19:00 +26°C° 0.2 mm 1 mps 717 mmHg 82%
20:00 +25°C° 0.2 mm 1 mps 718 mmHg 85%
21:00 +24°C° 0.2 mm 1 mps 718 mmHg 88%
22:00 +24°C° 0.2 mm 1 mps 718 mmHg 89%
23:00 +23°C° 0.2 mm 1 mps 718 mmHg 90%
Mostrar más

Necesitamos Su Consentimiento

Meteoprog y nuestros Proveedores de Servicios pueden almacenar y acceder a sus datos personales como cookies, identificadores de dispositivo u otras tecnologías similares de su dispositivo y procesar dichos datos para personalizar contenido y anuncios, además de ofrecer funciones de redes sociales y analizar el tráfico.

  • Almacenar y/o acceder a información en su dispositivo

    Se puede almacenar o acceder a cookies, identificadores de dispositivo u otra información de su dispositivo para los fines anteriormente indicados.

  • Anuncios y contenido personalizados, medición de anuncios y contenido, percepciones del público, y desarrollo de productos

    Los anuncios y el contenido pueden personalizarse en base a su perfil. Se pueden añadir más datos para personalizar mejor los anuncios y contenidos. Se puede medir el rendimiento de los anuncios y contenidos. Se puede obtener la percepción sobre el público que ha visto los anuncios y contenidos. Dichos datos pueden usarse para desarrollar o mejorar la experiencia del usuario, sistemas y software.

Al hacer clic en ‘Estoy De Acuerdo’ usted permitirá el uso de las cookies, identificadores de dispositivo, balizas web u otras tecnologías similares indicadas. Su configuración puede cambiarse desde el navegador de su dispositivo.

Para ciertos fines, los intereses legítimos pueden ser considerados por encima del consentimiento. Puede leer más sobre ello en nuestra Política de Privacidad y Cookies.